EW4363 Weather Reports


time (UTC)temp
C
wind
direction
speed
KPH
gust
KPH
rain 1hr
cm
rain 24hr
cm
rain mn
cm
humidity
%
barometer
mb
20260504100304 22 326 1.6 4.8 0.00 0.05 0.00 58 1010.9
20260504081305 20 273 1.6 4.8 0.00 0.05 0.00 65 1011.4
20260504080804 20 264 3.2 4.8 0.00 0.05 0.00 66 1011.5
20260504080304 20 270 1.6 8.0 0.00 0.05 0.00 66 1011.4
20260504070305 18 269 1.6 8.0 0.00 0.05 0.00 73 1012.0
20260504050305 15 273 0.0 1.6 0.00 0.05 0.00 85 1012.1
20260504045804 15 273 0.0 1.6 0.00 0.05 0.00 85 1012.1
20260504044804 15 273 0.0 1.6 0.00 0.05 0.00 85 1012.1
20260504044305 15 273 0.0 1.6 0.00 0.05 0.00 86 1012.1
20260504043304 15 273 0.0 1.6 0.00 0.05 0.00 87 1012.3
20260504042804 15 320 0.0 1.6 0.00 0.05 0.00 87 1012.3
20260504042304 15 323 0.0 0.0 0.00 0.05 0.00 89 1012.3
20260504041304 15 323 0.0 0.0 0.00 0.05 0.00 89 1012.2
20260504040805 15 323 0.0 0.0 0.00 0.05 0.00 89 1012.2
20260504040304 15 323 0.0 0.0 0.00 0.05 0.00 89 1012.3
20260504035305 15 323 0.0 0.0 0.00 0.05 0.00 88 1012.3
20260504034305 15 323 0.0 0.0 0.00 0.05 0.00 88 1012.2
20260504033304 15 323 0.0 0.0 0.00 0.05 0.00 88 1012.2
20260504032305 15 323 0.0 0.0 0.00 0.05 0.00 87 1012.2
20260504031805 15 323 0.0 0.0 0.00 0.05 0.00 88 1012.2
20260504030804 15 323 0.0 0.0 0.00 0.05 0.00 88 1012.3
20260504030305 15 323 0.0 0.0 0.00 0.05 0.00 88 1012.3
20260504025804 15 323 0.0 1.6 0.00 0.05 0.00 88 1012.3
20260504025304 15 322 0.0 0.0 0.00 0.05 0.00 88 1012.3
20260504024805 15 322 0.0 0.0 0.00 0.05 0.00 88 1012.4
20260504024305 15 322 0.0 0.0 0.00 0.05 0.00 88 1012.3
20260504023806 15 322 0.0 1.6 0.00 0.05 0.00 88 1012.3
20260504023305 15 321 0.0 1.6 0.00 0.05 0.00 88 1012.3
20260504022805 15 321 0.0 0.0 0.00 0.05 0.00 87 1012.2
20260504022305 15 321 0.0 0.0 0.00 0.05 0.00 88 1012.2
20260504021805 15 321 0.0 0.0 0.00 0.05 0.00 88 1012.3
20260504021304 15 321 0.0 1.6 0.00 0.05 0.00 88 1012.3
20260504020805 15 321 0.0 1.6 0.00 0.05 0.00 88 1012.3
20260504020305 15 325 0.0 1.6 0.00 0.05 0.00 88 1012.4
20260504015805 15 323 0.0 1.6 0.00 0.05 0.00 88 1012.6
20260504015305 15 325 0.0 0.0 0.00 0.05 0.00 87 1012.6
20260504014805 15 324 0.0 0.0 0.00 0.05 0.00 87 1012.6
20260504014305 15 331 0.0 0.0 0.00 0.05 0.00 87 1012.6
20260504013805 15 331 0.0 0.0 0.00 0.05 0.00 87 1012.6
20260504013304 15 331 0.0 0.0 0.00 0.05 0.00 87 1012.5
20260504012805 15 331 0.0 0.0 0.00 0.05 0.00 86 1012.5
20260504012306 15 331 0.0 0.0 0.00 0.05 0.00 87 1012.6
20260504011805 15 331 0.0 0.0 0.00 0.05 0.00 87 1012.7
20260504011306 15 0 0.0 0.0 0.00 0.05 0.00 87 1012.8
20260504010803 15 331 0.0 0.0 0.00 0.05 0.00 87 1012.8
20260504010303 15 331 0.0 0.0 0.00 0.05 0.00 86 1012.8
20260504005803 15 331 0.0 0.0 0.00 0.05 0.00 87 1012.9
20260504005305 15 331 0.0 0.0 0.00 0.05 0.00 86 1012.9
20260504004803 15 331 0.0 0.0 0.00 0.05 0.00 86 1013.0
20260504004304 15 331 0.0 0.0 0.00 0.05 0.00 86 1013.1
20260504003803 15 331 0.0 0.0 0.00 0.05 0.00 86 1012.9
20260504003303 15 331 0.0 0.0 0.00 0.05 0.00 86 1013.0
20260504002804 15 331 0.0 1.6 0.00 0.05 0.00 86 1013.1
20260504002304 15 331 0.0 0.0 0.00 0.05 0.00 86 1013.1
20260504001803 15 331 0.0 0.0 0.00 0.05 0.00 86 1013.2
20260504001303 15 331 0.0 0.0 0.00 0.05 0.00 86 1013.2
20260504000803 15 331 0.0 0.0 0.00 0.05 0.00 86 1013.3
20260504000303 15 331 0.0 0.0 0.00 0.05 0.00 86 1013.3
20260503235803 15 331 0.0 0.0 0.00 0.05 0.00 86 1013.3
20260503235304 15 331 0.0 0.0 0.00 0.05 0.00 86 1013.2
20260503234803 15 331 0.0 0.0 0.00 0.05 0.00 86 1013.2
20260503234304 15 331 0.0 0.0 0.00 0.05 0.00 86 1013.2
20260503233803 15 331 0.0 0.0 0.00 0.05 0.00 85 1013.2
20260503233304 15 331 0.0 0.0 0.00 0.05 0.00 86 1013.3
20260503232804 15 331 0.0 0.0 0.00 0.05 0.00 85 1013.4
20260503232305 15 331 0.0 0.0 0.00 0.05 0.00 85 1013.4
20260503231803 15 331 0.0 0.0 0.00 0.05 0.00 85 1013.4
20260503231303 15 331 0.0 0.0 0.00 0.05 0.00 85 1013.4
20260503230303 15 331 0.0 1.6 0.00 0.05 0.00 85 1013.4
20260503225804 15 331 0.0 0.0 0.00 0.05 0.00 85 1013.5
20260503225304 15 331 0.0 1.6 0.00 0.05 0.00 85 1013.4
20260503224803 16 331 0.0 0.0 0.00 0.05 0.00 85 1013.5
20260503223804 16 330 0.0 3.2 0.00 0.05 0.00 84 1013.4
20260503223303 16 324 0.0 4.8 0.00 0.05 0.00 83 1013.4
20260503222803 16 321 1.6 3.2 0.00 0.05 0.00 83 1013.4
20260503222304 16 324 1.6 3.2 0.00 0.05 0.00 82 1013.4
20260503221803 16 286 0.0 3.2 0.00 0.05 0.00 81 1013.4
20260503221304 16 276 1.6 4.8 0.00 0.05 0.00 81 1013.3
20260503220811 16 274 0.0 4.8 0.00 0.05 0.00 81 1013.3
20260503215803 16 287 3.2 9.7 0.00 0.05 0.05 81 1013.3
20260503215304 16 284 0.0 4.8 0.00 0.05 0.05 81 1013.3
20260503214803 16 284 1.6 9.7 0.00 0.05 0.05 81 1013.3
20260503214303 16 289 1.6 4.8 0.00 0.05 0.05 81 1013.3
20260503213803 16 307 0.0 4.8 0.00 0.05 0.05 81 1013.4
20260503212305 16 326 1.6 3.2 0.00 0.05 0.05 80 1013.3
20260503211803 16 325 0.0 3.2 0.00 0.05 0.05 80 1013.5
20260503210804 16 323 0.0 1.6 0.00 0.05 0.05 82 1013.6
20260503210303 16 326 0.0 0.0 0.00 0.05 0.05 82 1013.6
20260503205804 16 326 0.0 0.0 0.00 0.05 0.05 82 1013.6
20260503205304 16 326 0.0 0.0 0.00 0.05 0.05 81 1013.7
20260503204803 16 326 0.0 0.0 0.00 0.05 0.05 81 1013.7
20260503204304 16 326 0.0 0.0 0.00 0.05 0.05 81 1013.7
20260503203804 16 326 0.0 0.0 0.00 0.05 0.05 81 1013.8
20260503203304 16 326 0.0 0.0 0.00 0.05 0.05 81 1013.7
20260503202803 16 326 0.0 0.0 0.00 0.05 0.05 81 1013.7
20260503202304 16 326 0.0 0.0 0.00 0.05 0.05 81 1013.7
20260503201804 16 326 0.0 1.6 0.00 0.05 0.05 81 1013.8
20260503201303 16 326 0.0 0.0 0.00 0.05 0.05 81 1013.7
20260503200303 16 326 0.0 0.0 0.00 0.05 0.05 81 1013.8
20260503195804 16 326 0.0 0.0 0.00 0.05 0.05 81 1013.8
20260503195304 16 326 0.0 0.0 0.00 0.05 0.05 81 1013.7
20260503194804 16 326 0.0 0.0 0.00 0.05 0.05 82 1013.7
20260503194303 16 326 0.0 1.6 0.00 0.05 0.05 81 1013.7
20260503193804 16 326 0.0 1.6 0.00 0.05 0.05 81 1013.6
20260503192803 16 328 0.0 3.2 0.00 0.05 0.05 81 1013.5
20260503191803 16 326 1.6 4.8 0.00 0.05 0.05 80 1013.4
20260503191303 16 330 0.0 3.2 0.00 0.05 0.05 80 1013.4
20260503190804 16 315 1.6 4.8 0.00 0.05 0.05 80 1013.3
20260503190304 16 324 1.6 4.8 0.00 0.05 0.05 79 1013.3
20260503185803 16 325 1.6 4.8 0.00 0.05 0.05 79 1013.2
20260503184804 16 332 0.0 4.8 0.00 0.05 0.05 78 1013.2
20260503184304 16 325 1.6 4.8 0.00 0.05 0.05 78 1013.2
20260503183803 17 323 1.6 4.8 0.00 0.05 0.05 77 1013.2
20260503182804 17 326 1.6 3.2 0.00 0.05 0.05 75 1013.2
20260503181304 17 322 0.0 3.2 0.00 0.05 0.05 73 1013.3
20260503180804 17 327 1.6 4.8 0.00 0.05 0.05 73 1013.3
20260503180304 17 324 1.6 4.8 0.00 0.05 0.05 72 1013.3
20260503175804 17 327 0.0 4.8 0.00 0.05 0.05 72 1013.3
20260503175304 17 322 1.6 4.8 0.00 0.05 0.05 72 1013.3
20260503174803 17 323 0.0 4.8 0.00 0.05 0.05 72 1013.3
20260503174304 17 328 0.0 4.8 0.00 0.05 0.05 71 1013.3
20260503173805 17 328 1.6 8.0 0.00 0.05 0.05 70 1013.2
20260503173303 17 322 3.2 8.0 0.00 0.05 0.05 69 1013.1
20260503172804 17 330 1.6 4.8 0.00 0.05 0.05 69 1013.0
20260503172305 17 328 0.0 3.2 0.00 0.05 0.05 68 1012.9
20260503171803 17 291 0.0 3.2 0.00 0.05 0.05 68 1012.9
20260503150804 19 322 3.2 4.8 0.00 0.05 0.05 66 1012.7
20260503150304 19 325 3.2 4.8 0.00 0.05 0.05 65 1012.7
20260503140304 20 314 3.2 4.8 0.00 0.05 0.05 65 1013.6
20260503131304 20 323 4.8 9.7 0.00 0.05 0.05 62 1014.6
20260503130805 20 322 1.6 9.7 0.00 0.05 0.05 62 1014.7
20260503130304 20 323 1.6 4.8 0.00 0.05 0.05 63 1014.7
20260503110804 18 281 0.0 3.2 0.05 0.05 0.05 80 1015.3
20260503110304 17 323 0.0 1.6 0.05 0.05 0.05 80 1015.5